{"data":{"norad_id":48213,"intl_designator":"2021-031D","name":"ONEWEB-0180","alt_names":[],"object_type":"PAYLOAD","status":"ACTIVE","operator":null,"country":"UK","launch_date":"2021-04-25","launch_site_code":"VOSTO","launch_vehicle":null,"mission":null,"orbit_class":"UNKNOWN","rcs_meters":null,"size_class":null,"mass_kg":null,"dimensions":null,"purposes":["comms"],"wikipedia_slug":null,"has_3d_model":false,"image_url":null,"decayed_at":null,"tle_current":{"epoch":"2026-09-19T23:58:03.931104Z","epoch_age_seconds":61652,"freshness":"FRESH","line1":"1 48213U 21031D   26262.99865661  .00000105  00000+0  24876-3 0  9998","line2":"2 48213  87.8901 270.7935 0001501  87.7769 272.3532 13.14504329260674","mean_motion":13.14504329,"eccentricity":0.0001501,"inclination_deg":87.8901,"raan_deg":270.7935,"arg_perigee_deg":87.7769,"mean_anomaly_deg":272.3532,"bstar":0.00024876,"rev_number":26067,"period_min":109.54699564173,"perigee_km":1204.6461270676,"apogee_km":1206.922820294,"semimajor_km":7583.9214736808,"source":"CELESTRAK","updated_at":"2026-09-20T09:00:44.592516Z"}}}